Weather in Manosque

France     43°49′44″N   5°47′15″E
temp.,
°C
wind,
m/s
gust,
m/s
humid.,
%
clouds,
%
prec.,
mm/h
press.,
hPa
HPBL,
m
3 march, wed
wed301:00+6ne126599 0.0 103322
04:00+5nne116583 0.0 103222
07:00+5ne126692 0.0 103222
10:00+10ne1253100 0.0 1032204
13:00+15s123899 0.0 1031832
16:00+15s2238100 0.0 10291090
19:00+9s2263100 0.0 102923
22:00+7sse117194 0.0 102922
4 march, thu
thu401:00+6ene117496 0.0 102822
04:00+5ne118068 0.0 102622
07:00+4nne118433 0.0 102522
10:00+10ne00620 0.0 1024276
13:00+13wsw33500 0.0 1023981
16:00+13w45560 0.0 10201068
19:00+8w37862 0.0 1020157
22:00+7w229491 0.0 102050
5 march, fri
fri501:00+6w229578 0.0 101922
04:00+6w129467 0.0 101822
07:00+5w129680 0.0 101722
10:00+9w238399 0.0 1017508
13:00+12wsw447398 0.1 1016686
16:00+13wsw4668100 0.0 1015803
19:00+9wnw238095 0.1 101654
22:00+6n118116 0.0 101822
6 march, sat
sat601:00+5nne12887 0.0 101922
04:00+4nne22860 0.0 101923
07:00+4ne22880 0.0 102024
10:00+10ne22607 0.0 1022288
13:00+13sse346624 0.2 1022978
16:00+13sse576866 1.3 10221037
19:00+8s378951 1.4 1024171
22:00+6s229730 0.0 102659
7 march, sun
sun701:00+5se019533 0.0 102622
04:00+6e009269 0.0 102523
07:00+6ne019084 0.0 102522
10:00+9se227673 0.0 1025575
13:00+12s325855 0.1 10231155
16:00+12s226052 0.3 10211106
19:00+9wsw227669 0.4 102160
22:00+6w228861 0.0 102141